Time,TemperatureF,DewpointF,PressureIn,WindDirection,WindDirectionDegrees,WindSpeedMPH,WindSpeedGustMPH,Humidity,HourlyPrecipIn,Conditions,Clouds,dailyrainin,SoftwareType,DateUTC
2013-07-08 00:07:00,71.1,70.0,29.91,ENE,78,0.0,0.0,97,0.00,,,0.00,weatherlink.com 1.10,2013-07-08 04:07:00,
2013-07-08 00:22:00,71.1,70.0,29.91,ENE,78,0.0,1.0,97,0.00,,,0.00,weatherlink.com 1.10,2013-07-08 04:22:00,
2013-07-08 00:37:00,70.6,70.0,29.91,ENE,78,0.0,0.0,97,0.00,,,0.00,weatherlink.com 1.10,2013-07-08 04:37:00,
2013-07-08 00:52:00,70.3,69.0,29.92,ENE,78,0.0,0.0,97,0.00,,,0.00,weatherlink.com 1.10,2013-07-08 04:52:00,
2013-07-08 01:07:00,70.7,70.0,29.92,ENE,78,0.0,0.0,98,0.00,,,0.00,weatherlink.com 1.10,2013-07-08 05:07:00,
2013-07-08 01:22:00,71.6,71.0,29.92,WSW,246,0.0,1.0,98,0.00,,,0.00,weatherlink.com 1.10,2013-07-08 05:22:00,
2013-07-08 01:38:00,72.4,72.0,29.93,WSW,249,0.0,2.0,98,0.00,,,0.00,weatherlink.com 1.10,2013-07-08 05:38:00,
2013-07-08 01:53:00,72.1,71.0,29.92,West,259,2.0,2.0,97,0.00,,,0.00,weatherlink.com 1.10,2013-07-08 05:53:00,
2013-07-08 02:08:00,72.7,72.0,29.92,WSW,250,1.0,3.0,98,0.00,,,0.00,weatherlink.com 1.10,2013-07-08 06:08:00,
2013-07-08 02:23:00,73.7,73.0,29.92,WSW,253,2.0,4.0,97,0.00,,,0.00,weatherlink.com 1.10,2013-07-08 06:23:00,
2013-07-08 02:38:00,74.4,73.0,29.92,West,267,1.0,8.0,95,0.00,,,0.00,weatherlink.com 1.10,2013-07-08 06:38:00,
2013-07-08 02:53:00,74.5,73.0,29.91,West,281,2.0,7.0,94,0.00,,,0.00,weatherlink.com 1.10,2013-07-08 06:53:00,
2013-07-08 03:08:00,74.8,72.0,29.92,West,276,0.0,8.0,92,0.00,,,0.00,weatherlink.com 1.10,2013-07-08 07:08:00,
2013-07-08 03:23:00,74.9,72.0,29.91,WSW,249,2.0,7.0,90,0.00,,,0.00,weatherlink.com 1.10,2013-07-08 07:23:00,
2013-07-08 03:38:00,74.8,71.0,29.91,SW,231,2.0,5.0,88,0.00,,,0.00,weatherlink.com 1.10,2013-07-08 07:38:00,
2013-07-08 03:53:00,74.9,71.0,29.92,SW,222,0.0,6.0,87,0.00,,,0.00,weatherlink.com 1.10,2013-07-08 07:53:00,
2013-07-08 04:08:00,74.8,71.0,29.91,SW,232,2.0,4.0,87,0.00,,,0.00,weatherlink.com 1.10,2013-07-08 08:08:00,
2013-07-08 04:23:00,74.9,71.0,29.92,SW,214,2.0,4.0,86,0.00,,,0.00,weatherlink.com 1.10,2013-07-08 08:23:00,
2013-07-08 04:38:00,74.7,70.0,29.92,SW,214,2.0,4.0,86,0.00,,,0.00,weatherlink.com 1.10,2013-07-08 08:38:00,
2013-07-08 04:53:00,74.5,70.0,29.92,SW,215,3.0,3.0,86,0.00,,,0.00,weatherlink.com 1.10,2013-07-08 08:53:00,
2013-07-08 05:08:00,74.3,70.0,29.93,SSW,208,1.0,4.0,85,0.00,,,0.00,weatherlink.com 1.10,2013-07-08 09:08:00,
2013-07-08 05:23:00,73.1,68.0,29.93,SW,231,2.0,3.0,85,0.00,,,0.00,weatherlink.com 1.10,2013-07-08 09:23:00,
2013-07-08 05:38:00,73.0,69.0,29.93,SSW,211,0.0,2.0,87,0.00,,,0.00,weatherlink.com 1.10,2013-07-08 09:38:00,
2013-07-08 05:53:00,72.5,68.0,29.93,SSW,211,2.0,3.0,86,0.00,,,0.00,weatherlink.com 1.10,2013-07-08 09:53:00,
2013-07-08 06:08:00,-999.0,-99.9,29.94,North,-999,-999.0,-999.0,-999,0.00,,,0.00,weatherlink.com 1.10,2013-07-08 10:08:00,
2013-07-08 06:23:00,-999.0,-99.9,29.94,North,-999,-999.0,-999.0,-999,0.00,,,0.00,weatherlink.com 1.10,2013-07-08 10:23:00,
2013-07-08 06:38:00,-999.0,-99.9,29.94,North,-999,-999.0,-999.0,-999,0.00,,,0.00,weatherlink.com 1.10,2013-07-08 10:38:00,
2013-07-08 06:53:00,-999.0,-99.9,29.94,North,-999,-999.0,-999.0,-999,0.00,,,0.00,weatherlink.com 1.10,2013-07-08 10:53:00,
2013-07-08 07:08:00,-999.0,-99.9,29.95,North,-999,-999.0,-999.0,-999,0.00,,,0.00,weatherlink.com 1.10,2013-07-08 11:08:00,
2013-07-08 07:23:00,-999.0,-99.9,29.95,North,-999,-999.0,-999.0,-999,0.00,,,0.00,weatherlink.com 1.10,2013-07-08 11:23:00,
2013-07-08 07:38:00,-999.0,-99.9,29.95,North,-999,-999.0,-999.0,-999,0.00,,,0.00,weatherlink.com 1.10,2013-07-08 11:38:00,
2013-07-08 07:53:00,-999.0,-99.9,29.95,North,-999,-999.0,-999.0,-999,0.00,,,0.00,weatherlink.com 1.10,2013-07-08 11:53:00,
2013-07-08 08:08:00,-999.0,-99.9,29.96,North,-999,-999.0,-999.0,-999,0.00,,,0.00,weatherlink.com 1.10,2013-07-08 12:08:00,
2013-07-08 08:24:00,-999.0,-99.9,29.95,North,-999,-999.0,-999.0,-999,0.00,,,0.00,weatherlink.com 1.10,2013-07-08 12:24:00,
2013-07-08 08:39:00,-999.0,-99.9,29.96,North,-999,-999.0,-999.0,-999,0.00,,,0.00,weatherlink.com 1.10,2013-07-08 12:39:00,
2013-07-08 08:54:00,-999.0,-99.9,29.96,North,-999,-999.0,-999.0,-999,0.00,,,0.00,weatherlink.com 1.10,2013-07-08 12:54:00,
2013-07-08 09:09:00,75.3,71.0,29.95,SW,226,4.0,7.0,86,0.00,,,0.00,weatherlink.com 1.10,2013-07-08 13:09:00,
2013-07-08 09:24:00,76.7,72.0,29.96,WSW,240,2.0,9.0,84,0.00,,,0.00,weatherlink.com 1.10,2013-07-08 13:24:00,
2013-07-08 09:39:00,78.3,73.0,29.96,SW,215,2.0,9.0,83,0.00,,,0.00,weatherlink.com 1.10,2013-07-08 13:39:00,
2013-07-08 09:54:00,78.9,73.0,29.96,WSW,243,3.0,7.0,81,0.00,,,0.00,weatherlink.com 1.10,2013-07-08 13:54:00,
2013-07-08 10:09:00,79.2,73.0,29.96,WSW,240,4.0,5.0,80,0.00,,,0.00,weatherlink.com 1.10,2013-07-08 14:09:00,
2013-07-08 10:24:00,79.7,73.0,29.96,WSW,242,3.0,8.0,80,0.00,,,0.00,weatherlink.com 1.10,2013-07-08 14:24:00,
2013-07-08 10:39:00,79.8,73.0,29.96,SSW,195,3.0,7.0,80,0.00,,,0.00,weatherlink.com 1.10,2013-07-08 14:39:00,
2013-07-08 10:54:00,80.3,73.0,29.97,SSW,207,2.0,7.0,78,0.00,,,0.00,weatherlink.com 1.10,2013-07-08 14:54:00,
2013-07-08 11:09:00,80.1,72.0,29.97,SSE,162,2.0,8.0,77,0.00,,,0.00,weatherlink.com 1.10,2013-07-08 15:09:00,
2013-07-08 11:24:00,80.3,73.0,29.97,WSW,242,2.0,14.0,78,0.00,,,0.00,weatherlink.com 1.10,2013-07-08 15:24:00,
2013-07-08 11:39:00,80.8,73.0,29.97,SSW,198,3.0,7.0,77,0.00,,,0.00,weatherlink.com 1.10,2013-07-08 15:39:00,
2013-07-08 11:54:00,80.6,72.0,29.98,WSW,255,2.0,6.0,76,0.00,,,0.00,weatherlink.com 1.10,2013-07-08 15:54:00,
2013-07-08 12:09:00,81.1,73.0,29.97,WSW,248,2.0,6.0,77,0.00,,,0.00,weatherlink.com 1.10,2013-07-08 16:09:00,
2013-07-08 12:24:00,79.9,73.0,29.97,SW,219,1.0,4.0,78,0.00,,,0.00,weatherlink.com 1.10,2013-07-08 16:24:00,
2013-07-08 12:39:00,81.3,73.0,29.97,SSW,205,1.0,4.0,76,0.00,,,0.00,weatherlink.com 1.10,2013-07-08 16:39:00,
2013-07-08 12:55:00,81.5,73.0,29.97,South,186,4.0,5.0,76,0.00,,,0.00,weatherlink.com 1.10,2013-07-08 16:55:00,
2013-07-08 13:09:00,81.6,73.0,29.97,WSW,249,5.0,6.0,74,0.00,,,0.00,weatherlink.com 1.10,2013-07-08 17:09:00,
2013-07-08 13:54:00,81.3,73.0,29.97,SSW,211,1.0,5.0,77,0.00,,,0.00,weatherlink.com 1.10,2013-07-08 17:54:00,
2013-07-08 14:09:00,81.6,73.0,29.97,SSW,203,3.0,6.0,75,0.00,,,0.00,weatherlink.com 1.10,2013-07-08 18:09:00,
2013-07-08 14:24:00,81.7,73.0,29.96,SSW,207,2.0,6.0,75,0.00,,,0.00,weatherlink.com 1.10,2013-07-08 18:24:00,
2013-07-08 14:39:00,82.2,73.0,29.96,SSE,154,2.0,5.0,74,0.00,,,0.00,weatherlink.com 1.10,2013-07-08 18:39:00,
2013-07-08 14:54:00,82.8,73.0,29.96,SSW,212,2.0,6.0,72,0.00,,,0.00,weatherlink.com 1.10,2013-07-08 18:54:00,
2013-07-08 15:24:00,83.9,72.0,29.95,South,170,3.0,6.0,68,0.00,,,0.00,weatherlink.com 1.10,2013-07-08 19:24:00,
2013-07-08 15:39:00,83.0,72.0,29.95,South,169,3.0,7.0,70,0.00,,,0.00,weatherlink.com 1.10,2013-07-08 19:39:00,
2013-07-08 15:54:00,82.7,72.0,29.95,SW,219,5.0,7.0,71,0.00,,,0.00,weatherlink.com 1.10,2013-07-08 19:54:00,
2013-07-08 16:40:00,83.3,73.0,29.95,SSW,198,4.0,6.0,70,0.00,,,0.00,weatherlink.com 1.10,2013-07-08 20:40:00,
2013-07-08 17:09:00,81.1,73.0,29.95,SSW,196,0.0,4.0,77,0.00,,,0.00,weatherlink.com 1.10,2013-07-08 21:09:00,
2013-07-08 17:24:00,80.0,73.0,29.95,SW,215,3.0,4.0,78,0.00,,,0.00,weatherlink.com 1.10,2013-07-08 21:24:00,
2013-07-08 17:40:00,78.9,73.0,29.94,WSW,245,2.0,4.0,81,0.00,,,0.00,weatherlink.com 1.10,2013-07-08 21:40:00,
2013-07-08 17:55:00,78.3,72.0,29.94,SW,232,3.0,3.0,82,0.00,,,0.00,weatherlink.com 1.10,2013-07-08 21:55:00,
2013-07-08 19:10:00,75.3,71.0,29.95,SSE,165,2.0,3.0,86,0.00,,,0.00,weatherlink.com 1.10,2013-07-08 23:10:00,
2013-07-08 19:42:00,73.7,70.0,29.95,SSW,207,3.0,5.0,89,0.00,,,0.00,weatherlink.com 1.10,2013-07-08 23:42:00,
2013-07-08 20:10:00,73.3,70.0,29.95,SW,226,2.0,3.0,88,0.00,,,0.00,weatherlink.com 1.10,2013-07-09 00:10:00,
2013-07-08 20:25:00,72.3,69.0,29.96,SSW,207,0.0,4.0,89,0.00,,,0.00,weatherlink.com 1.10,2013-07-09 00:25:00,
2013-07-08 20:43:00,71.6,69.0,29.97,SW,226,1.0,4.0,91,0.00,,,0.00,weatherlink.com 1.10,2013-07-09 00:43:00,
2013-07-08 20:55:00,71.7,69.0,29.98,SSW,205,1.0,4.0,92,0.00,,,0.00,weatherlink.com 1.10,2013-07-09 00:55:00,
2013-07-08 21:10:00,71.8,70.0,29.98,SW,225,2.0,2.0,93,0.00,,,0.00,weatherlink.com 1.10,2013-07-09 01:10:00,
2013-07-08 21:25:00,72.7,71.0,29.99,SW,231,2.0,3.0,93,0.00,,,0.00,weatherlink.com 1.10,2013-07-09 01:25:00,
2013-07-08 21:40:00,72.8,70.0,30.00,SW,235,0.0,3.0,92,0.00,,,0.00,weatherlink.com 1.10,2013-07-09 01:40:00,
2013-07-08 22:40:00,70.5,68.0,30.01,SSE,150,0.0,1.0,92,0.00,,,0.00,weatherlink.com 1.10,2013-07-09 02:40:00,
2013-07-08 22:55:00,70.2,69.0,30.00,SSE,150,0.0,1.0,94,0.00,,,0.00,weatherlink.com 1.10,2013-07-09 02:55:00,
2013-07-08 23:10:00,70.7,69.0,30.00,WSW,239,0.0,1.0,95,0.00,,,0.00,weatherlink.com 1.10,2013-07-09 03:10:00,
2013-07-08 23:25:00,71.3,70.0,30.00,SSW,212,0.0,2.0,94,0.00,,,0.00,weatherlink.com 1.10,2013-07-09 03:25:00,
2013-07-08 23:55:00,71.1,69.0,29.99,SW,214,0.0,2.0,94,0.00,,,0.00,weatherlink.com 1.10,2013-07-09 03:55:00,